Weather History for Selinsgrove, PA

Change the Weather History Date:

Monday, July 1, 2013

  Actual Average (KIPT) Record (KIPT)
Temperature  
Mean Temperature 75 °F 72 °F  
Max Temperature 82 °F 83 °F 102 °F (1931)
Min Temperature 69 °F 61 °F 44 °F (1943)
Degree Days  
Heating Degree Days 0 0  
Month to date heating degree days 0  
Since 1 June heating degree days 37  
Since 1 July heating degree days 0  
Cooling Degree Days 10 7  
Month to date cooling degree days 7  
Year to date cooling degree days 196  
Since 1 June cooling degree days 153  
Growing Degree Days 25 (Base 50)    
Moisture  
Dew Point 70 °F    
Average Humidity 86    
Maximum Humidity 100    
Minimum Humidity 69    
Precipitation  
Precipitation 0.17 in 0.13 in 2.42 in (1984)
Month to date precipitation 0.13  
Year to date precipitation 18.96  
Sea Level Pressure  
Sea Level Pressure 29.91 in    
Wind  
Wind Speed 2 mph (South)    
Max Wind Speed 10 mph    
Max Gust Speed 18 mph    
Visibility 7 miles    
Events Rain , Thunderstorm    
T = Trace of Precipitation, MM = Missing Value Source: NWS Daily Summary

Daily Weather History Graph

Daily Weather History Graph

Search for Another Location

Airport:

Trip Planner

Search our weather history database for the weather conditions in past years. The results will help you decide how hot, cold, wet, or windy it might be!

Date:

Astronomy

Jul. 01, 2013 Rise Set
Actual Time 5:39 AM EDT 8:42 PM EDT
Civil Twilight 5:06 AM EDT 9:16 PM EDT
Nautical Twilight 4:24 AM EDT 9:58 PM EDT
Astronomical Twilight 3:34 AM EDT 10:48 PM EDT
Moon 1:09 AM EDT (7/1) 2:54 PM EDT (7/1)
Length of Visible Light 16h 09m
Length of Day
15h 03m
Waning Crescent, 35% of the Moon is Illuminated
Jul 1
Waning Crescent
Jul 8
New
Jul 15
First Quarter
Jul 22
Full
Jul 29
Last Quarter

Hourly Weather History & Observations

Time (EDT) Temp. Heat Index Dew Point Humidity Pressure Visibility Wind Dir Wind Speed Gust Speed Precip Events Conditions
12:53 AM 71.1 °F - 69.1 °F 93% 29.88 in 6.0 mi Calm Calm - N/A   Overcast
1:53 AM 72.0 °F - 69.1 °F 91% 29.88 in 7.0 mi North 4.6 mph - N/A   Overcast
2:37 AM 71.6 °F - 68.0 °F 88% 29.87 in 10.0 mi Calm Calm - 0.00 in Thunderstorm Overcast
2:51 AM 71.6 °F - 68.0 °F 88% 29.89 in 4.0 mi Calm Calm - 0.03 in Rain , Thunderstorm Heavy Thunderstorms and Rain
2:57 AM 71.6 °F - 68.0 °F 88% 29.88 in 1.8 mi Calm Calm - 0.04 in Rain , Thunderstorm Heavy Thunderstorms and Rain
3:08 AM 69.8 °F - 69.8 °F 100% 29.88 in 1.8 mi Calm Calm - 0.12 in Rain , Thunderstorm Heavy Thunderstorms and Rain
3:17 AM 69.8 °F - 69.8 °F 100% 29.88 in 2.5 mi Calm Calm - 0.14 in Rain , Thunderstorm Thunderstorms and Rain
3:26 AM 71.6 °F - 69.8 °F 94% 29.88 in 4.0 mi Calm Calm - 0.15 in Rain , Thunderstorm Light Thunderstorms and Rain
3:34 AM 69.8 °F - 69.8 °F 100% 29.88 in 4.0 mi Calm Calm - 0.16 in Rain Light Rain
3:45 AM 69.8 °F - 69.8 °F 100% 29.88 in 4.0 mi WNW 3.5 mph - 0.16 in Rain Light Rain
3:53 AM 70.0 °F - 68.0 °F 93% 29.88 in 5.0 mi NW 3.5 mph - 0.16 in   Mostly Cloudy
4:53 AM 70.0 °F - 68.0 °F 93% 29.88 in 5.0 mi NNW 3.5 mph - N/A   Scattered Clouds
5:46 AM 71.6 °F - 69.8 °F 94% 29.91 in 4.0 mi Calm Calm - 0.00 in   Overcast
5:53 AM 71.1 °F - 69.1 °F 93% 29.90 in 4.0 mi Calm Calm - 0.00 in   Overcast
6:28 AM 69.8 °F - 68.0 °F 94% 29.90 in 3.0 mi Calm Calm - N/A   Overcast
6:53 AM 70.0 °F - 69.1 °F 97% 29.89 in 3.0 mi Calm Calm - N/A   Overcast
7:18 AM 71.6 °F - 69.8 °F 94% 29.91 in 2.5 mi Calm Calm - 0.00 in   Overcast
7:36 AM 71.6 °F - 69.8 °F 94% 29.92 in 3.0 mi Calm Calm - 0.00 in   Overcast
7:53 AM 72.0 °F - 69.1 °F 91% 29.91 in 3.0 mi Calm Calm - 0.00 in   Overcast
8:16 AM 71.6 °F - 69.8 °F 94% 29.92 in 4.0 mi Calm Calm - N/A   Overcast
8:28 AM 71.6 °F - 69.8 °F 94% 29.92 in 6.0 mi Calm Calm - N/A   Overcast
8:51 AM 73.4 °F - 69.8 °F 88% 29.92 in 6.0 mi Calm Calm - N/A   Overcast
8:53 AM 73.0 °F - 69.1 °F 87% 29.91 in 6.0 mi Calm Calm - N/A   Overcast
9:53 AM 75.0 °F - 71.1 °F 87% 29.92 in 8.0 mi Calm Calm - N/A   Mostly Cloudy
10:33 AM 75.2 °F - 69.8 °F 83% 29.93 in 10.0 mi Calm Calm - N/A   Overcast
10:53 AM 77.0 °F - 70.0 °F 79% 29.92 in 10.0 mi South 3.5 mph - N/A   Overcast
11:35 AM 78.8 °F - 69.8 °F 74% 29.93 in 10.0 mi SSE 8.1 mph - N/A   Mostly Cloudy
11:53 AM 79.0 °F - 71.1 °F 77% 29.92 in 10.0 mi SSE 8.1 mph - 0.01 in   Scattered Clouds
12:53 PM 79.0 °F - 70.0 °F 74% 29.91 in 10.0 mi South 4.6 mph - N/A   Clear
1:53 PM 79.0 °F - 70.0 °F 74% 29.91 in 10.0 mi SSW 5.8 mph - N/A   Mostly Cloudy
2:53 PM 79.0 °F - 70.0 °F 74% 29.90 in 10.0 mi Calm Calm - N/A   Mostly Cloudy
3:29 PM 78.8 °F - 69.8 °F 74% 29.92 in 10.0 mi South 5.8 mph - N/A   Overcast
3:53 PM 80.1 °F 83.6 °F 71.1 °F 74% 29.90 in 10.0 mi Variable 4.6 mph - N/A   Mostly Cloudy
4:10 PM 78.8 °F - 69.8 °F 74% 29.92 in 10.0 mi South 8.1 mph - N/A   Mostly Cloudy
4:53 PM 79.0 °F - 71.1 °F 77% 29.90 in 9.0 mi SSE 10.4 mph 18.4 mph 0.00 in Rain Light Rain
5:53 PM 80.1 °F 83.8 °F 72.0 °F 76% 29.90 in 10.0 mi South 3.5 mph - 0.00 in   Partly Cloudy
6:53 PM 80.1 °F 83.6 °F 71.1 °F 74% 29.92 in 10.0 mi SSE 5.8 mph - N/A   Scattered Clouds
7:53 PM 81.0 °F 84.4 °F 70.0 °F 69% 29.94 in 10.0 mi South 10.4 mph - N/A   Mostly Cloudy
8:00 PM 78.8 °F - 69.8 °F 74% 29.94 in 10.0 mi SSE 8.1 mph - N/A   Mostly Cloudy
8:33 PM 77.0 °F - 69.8 °F 78% 29.96 in 10.0 mi South 4.6 mph - 0.00 in Rain Light Rain
8:53 PM 77.0 °F - 70.0 °F 79% 29.95 in 10.0 mi South 6.9 mph - 0.00 in   Mostly Cloudy
9:53 PM 75.0 °F - 70.0 °F 84% 29.97 in 10.0 mi Variable 3.5 mph - N/A   Clear
10:53 PM 72.0 °F - 70.0 °F 93% 29.97 in 6.0 mi Calm Calm - N/A   Partly Cloudy
11:53 PM 72.0 °F - 69.1 °F 91% 29.98 in 5.0 mi Calm Calm - N/A   Scattered Clouds